Regional Weather Roundup
Issued by NWS Memphis, TN

Home | Current Version | Previous Version | Text Only | Print | Product List | Glossary On
Versions: 1 2 3 4 5 6 7 8 9 10 11 12 13 14 15 16 17 18 19 20 21 22 23 24 25 26 27 28 29 30 31 32 33 34 35 36 37 38 39 40 41 42 43 44 45 46 47 48 49 50
000
ASUS44 KMEG 221610
RWRMEG
MEMPHIS CWA HOURLY WEATHER ROUNDUP
NATIONAL WEATHER SERVICE MEMPHIS TN
1100 AM CDT TUE JUL 22 2014

...WEST TENNESSEE...

CITY           SKY/WX    TMP DP  RH WIND       PRES   REMARKS
MEMPHIS INTL   MOSUNNY   86  68  54 CALM      30.09S
NWS MEMPHIS      N/A     85 N/A N/A MISG        N/A
JACKSON        SUNNY     85  70  60 NE3       30.09S
LEXINGTON      MOSUNNY   84  73  70 CALM      30.09R HX  91
SAVANNAH       PTSUNNY   86  77  74 CALM      30.09F HX  97
DYERSBURG      SUNNY     82  64  54 CALM      30.09S
UNION CITY     SUNNY     84  70  61 CALM      30.08R
PARIS          SUNNY     85  71  62 CALM      30.10R HX  90


...EASTERN ARKANSAS...

CITY           SKY/WX    TMP DP  RH WIND       PRES   REMARKS
JONESBORO      SUNNY     84  67  56 CALM      30.10R
WEST MEMPHIS   SUNNY     85  70  60 NE6       30.08R
BATESVILLE     MOSUNNY   82  70  65 W5        30.10S
NEWPORT        MOSUNNY   83  68  60 CALM      30.11R
WALNUT RIDGE   SUNNY     81  34  18 W3        30.10R
BLYTHEVILLE    SUNNY     86  70  58 CALM      30.09S HX  90
NW BLYTHEVILLE SUNNY     84  68  58 CALM      30.09R
SEARCY         SUNNY     85  66  52 W3        30.11S
STUTTGART      SUNNY     81  70  69 N3        30.10S
PINE BLUFF     SUNNY     83  68  60 E6        30.09S
MONTICELLO     MOSUNNY   84  70  62 E3        30.09S


...NORTH MISSISSIPPI...

CITY           SKY/WX    TMP DP  RH WIND       PRES   REMARKS
TUPELO         SUNNY     85  72  65 VRB3      30.07F HX  91
OLIVE BRANCH   SUNNY     82  73  74 E5        30.09
CLARKSDALE     SUNNY     84  73  70 CALM      30.09S HX  91
CORINTH        SUNNY     84  72  65 N3        30.08F
GRENADA        SUNNY     86  70  58 E7        30.08S HX  90
GREENWOOD      SUNNY     86  71  60 NE5       30.07S HX  91
COLUMBUS       PTSUNNY   80  71  75 E5        30.09S
STARKVILLE     PTSUNNY   81  73  78 E8        30.09S
GOLDEN TRIANGL PTSUNNY   79  70  73 E8        30.10S


...SOUTHEAST MISSOURI...

CITY           SKY/WX    TMP DP  RH WIND       PRES   REMARKS
WEST PLAINS    SUNNY     80  67  64 W5        30.14R
POPLAR BLUFF   SUNNY     83  65  54 SW5       30.09S
CAPE GIRARDEAU SUNNY     83  67  58 W3        30.09S


...NORTHWEST ALABAMA...

CITY           SKY/WX    TMP DP  RH WIND       PRES   REMARKS
MUSCLE SHOALS  PTSUNNY   83  72  69 SE8       30.12S


...MIDDLE TENNESSEE...

CITY           SKY/WX    TMP DP  RH WIND       PRES   REMARKS
NASHVILLE      PTSUNNY   85  71  63 S6        30.11F HX  90
CLARKSVILLE    SUNNY     86  71  60 SE5       30.09S HX  91
DICKSON        MOSUNNY   81  72  74 SE5       30.11S
COLUMBIA       MOSUNNY   84  73  70 VRB5      30.10F HX  91
LEWISBURG      PTSUNNY   83  71  66 S6        30.11F


...WESTERN KENTUCKY...

CITY           SKY/WX    TMP DP  RH WIND       PRES   REMARKS
PADUCAH        SUNNY     89  70  53 NE3       30.09R HX  94
FORT CAMPBELL  PTSUNNY   85  71  62 VRB5      30.09S HX  90


...CENTRAL ARKANSAS...

CITY           SKY/WX    TMP DP  RH WIND       PRES   REMARKS
LITTLE ROCK    MOSUNNY   84  66  54 S3        30.10S


SKY/WX REPORTED AS FAIR MEANS FEW OR NO CLOUDS BELOW
12 THOUSAND FEET.



USA.gov is the U.S. government's official web portal to all federal, state and local government web resources and services.